Location: Newark
(52.4787°S, 179.0532°W)
Time: 07:49:53
(UTC+00:00)

Transit 2A Rocket - Pass Details

Date: 26 November 2019
Orbit: 594 x 909 km, 66.7° (Epoch: 12 December)

Event Time Altitude Azimuth Distance (km) Brightness Sun altitude
Rises 05:29:54 0° 224° (SW) 3,571 9.4 18.4°
Reaches altitude 10° 05:32:52 10° 236° (SW) 2,609 9.2 18.0°
Maximum altitude 05:37:45 26° 289° (WNW) 1,687 8.0 17.3°
Drops below altitude 10° 05:42:25 10° 343° (NNW) 2,481 7.8 16.6°
Sets 05:45:10 0° 355° (N) 3,361 8.2 16.2°
